Home   Weather   Troll Station   Past weeks
Flag for Antarctica

Past Weather in Troll Station, Antarctica — Yesterday and Last 2 Weeks

Now
3 °F

Frigid.


Feels Like: 3 °F
Forecast: -6 / -15 °F
Wind: 2 mph from Northeast

Location: Troll

Current Time: Apr 22, 2019 at 10:29:54 am

Latest Report: Apr 22, 2019 at 9:00 am


Visibility: N/A

Pressure: 29.38 "Hg (24.54 "Hg at 1355m altitude)

Humidity: 72%

Dew Point: -4 °F

Location of Troll StationLocation

Past Weather in Troll Station — Graph

°F

Troll Station Temperature Yesterday

Maximum temperature yesterday: 17 °F (at 11:00 am)
Minimum temperature yesterday: 3 °F (at 11:00 pm)
Average temperature yesterday: 11 °F

High & Low Weather Summary for the Past Weeks

 TemperatureHumidityPressure
High17 °F (Apr 21, 11:00 am)81% (Apr 22, 6:00 am)29.80 "Hg (Apr 22, 6:00 am)
Low-9 °F (Apr 16, 2:00 am)11% (Apr 14, 11:00 am)28.64 "Hg (Apr 11, 6:00 pm)
Average4 °F45%29.23 "Hg
* Reported Apr 7 9:00 am — Apr 22 9:00 am, Troll Station. Weather by CustomWeather, © 2019

Note: Actual official high and low records may vary slightly from our data, if they occured in-between our weather recording intervals... More about our weather records

Advertising

Troll Station Weather History for the Previous 24 Hours

Scroll right to see more
 ConditionsComfort  
Time TempWeatherWind HumidityBarometerVisibility
9:00 am
Mon, Apr 22
3 °FFrigid.2 mph72%29.38 "HgN/A
8:00 am0 °FFrigid.1 mph75%29.41 "HgN/A
7:00 am1 °FFrigid.5 mph78%29.38 "HgN/A
6:00 am1 °FFrigid.3 mph81%29.35 "HgN/A
5:00 am2 °FFrigid.2 mph75%29.32 "HgN/A
4:00 am3 °FFrigid.2 mph54%29.29 "HgN/A
3:00 am4 °FFrigid.3 mph51%29.26 "HgN/A
2:00 am4 °FFrigid.3 mph52%29.23 "HgN/A
1:00 am3 °FFrigid.3 mph54%29.23 "HgN/A
12:00 am4 °FFrigid.5 mph46%29.21 "HgN/A
11:00 pm
Sun, Apr 21
3 °FFrigid.7 mph49%29.21 "HgN/A
10:00 pm5 °FFrigid.5 mph48%29.18 "HgN/A
9:00 pm5 °FFrigid.9 mph46%29.18 "HgN/A
8:00 pm6 °FOvercast.15 mph39%29.12 "Hg19 mi
7:00 pm9 °FFrigid.14 mph35%29.09 "HgN/A
6:00 pm9 °FFrigid.13 mph36%29.06 "HgN/A
5:00 pm12 °FCold.12 mph32%29.00 "HgN/A
4:00 pm17 °FCold.14 mph26%28.97 "HgN/A
3:00 pm14 °FCold.9 mph30%28.97 "HgN/A
2:00 pm14 °FOvercast.10 mph28%29.00 "Hg19 mi
1:00 pm11 °FCold.10 mphN/A29.03 "HgN/A
12:00 pm17 °FCold.15 mph18%29.00 "HgN/A
11:00 am17 °FCold.12 mph17%29.00 "HgN/A
10:00 am15 °FCold.12 mph20%29.03 "HgN/A
Weather by CustomWeather, © 2019

See weather overview